Tracking 18945 objects as of 21-Jan-2018
HD Live streaming from Space Station
objects crossing your sky now

RESURS O1 DEB

Track RESURS O1 DEB now!
10-day predictions


NORAD ID: 23347
Int'l Code: 1994-074F
Perigee: 634.8 km
Apogee: 826.2 km
Inclination: 97.8 °
Period: 99.3 minutes
Semi major axis: 7101 km
RCS: 0.08 m2 (small)
Launch date: November 4, 1994
Source: Commonwealth of Independent States (former USSR) (CIS)
Launch site: TYURATAM MISSILE AND SPACE COMPLEX (TTMTR)

Note: This is SATELLITE DEBRIS
aabbcc
Your satellite tracking list
Your tracking list is empty




NASA's NSSDC Master Catalog

Two Line Element Set (TLE):
1 23347U 94074F   18020.60208708 +.00000091 +00000-0 +31167-4 0  9997
2 23347 097.7982 255.3786 0134719 001.3914 027.9659 14.50697532224448
Source of the keplerian elements: AFSPC